Simultaneous Nadir Overpasses (SNOs) Predictions

Prediction of SNOs between NOAA-19 and TERRA Satellite Orbit:

Table of predicted SNOs for the next 14.0 days since TLE Epoch: 11/4/2022
Index Date (NOAA-19) Time (NOAA-19) Lat,Lon (NOAA-19) SZA (NOAA-19 ) Date (TERRA) Time (TERRA) Lat,Lon (TERRA) SZA (TERRA ) Distance(km) Time Diff (sec)
1 11/06/2022 16:48:27 -80.89, 143.55 81.00 11/06/2022 16:48:53 -80.90, 143.65 80.97 2.08 26
2 11/06/2022 17:39:21 80.83, -45.31 99.37 11/06/2022 17:38:10 81.04, -46.90 99.33 36.15 71
3 11/08/2022 20:39:20 80.89, -94.19 99.63 11/08/2022 20:39:54 80.90, -94.20 99.64 0.31 34
4 11/08/2022 21:30:15 -80.89, 73.26 80.35 11/08/2022 21:29:18 -80.89, 73.37 80.37 1.94 57
5 11/11/2022 00:30:04 -80.89, 28.19 79.77 11/11/2022 00:30:56 -80.90, 28.06 79.76 2.21 52
6 11/11/2022 01:21:07 80.89,-164.30 100.27 11/11/2022 01:20:18 80.90,-164.31 100.25 0.45 49
7 11/13/2022 04:20:56 80.90, 150.41 100.81 11/13/2022 04:21:56 80.89, 150.22 100.81 3.26 60
8 11/13/2022 05:11:52 -80.90, -42.20 79.18 11/13/2022 05:11:20 -80.89, -42.15 79.19 1.06 32
9 11/15/2022 08:11:58 -80.90, -93.71 79.22 11/15/2022 08:13:00 -80.82, -88.39 78.78 94.33 62
10 11/15/2022 09:02:43 80.90, 80.16 101.39 11/15/2022 09:02:19 80.90, 80.20 101.39 0.87 24



Historial Predications of SNOs between NOAA-19 and TERRA
